Torna al catalogo

COSMOS 2251 DEB

AttivoVLEO
NORAD 33795·DEBRIS·🇷🇺 Russia

Lanciato Jun 16, 1993 da Plesetsk Cosmodrome

Loading…

Prossimi Passaggi (prossime 24 ore)

TLE

AggiornatoSource: Space-Track

Epoca: Sep 14, 2026, 21:55 UTC

1 33795U 93036AL  26257.91321916  .00029367  00000-0  13968-2 0  9998
2 33795  74.0440 224.4254 0030219 240.2975 150.9904 15.18649982941976

Traccia COSMOS 2251 DEB in tempo reale con AllMySat

Download on the App Store